Regional Weather Roundup
Issued by NWS

Home | Current Version | Previous Version | Graphics & Text | Print | Product List | Glossary On
Versions: 1 2 3 4 5 6 7 8 9 10 11 12 13 14 15 16 17 18 19 20 21 22 23 24 25 26 27 28 29 30 31 32 33 34 35 36 37 38 39 40 41 42 43 44 45 46 47 48 49 50
000
ASUS43 KLOT 182310
RWRIL

ILLINOIS REGIONAL WEATHER ROUNDUP
NATIONAL WEATHER SERVICE CHICAGO/ROMEOVILLE IL
500 PM CST THU DEC 18 2014

NOTE: "FAIR" INDICATES FEW OR NO CLOUDS BELOW 12,000 FEET WITH NO
SIGNIFICANT WEATHER AND/OR OBSTRUCTIONS TO VISIBILITY.

* THESE STATIONS ARE NOT UNDER NWS QUALITY CONTROL. THEY ALSO MAY NOT
  REPORT WEATHER SUCH AS PRECIPITATION OR FOG.

ILZ001-002-007-009-015-016-024-190000-
NORTHWEST ILLINOIS

CITY           SKY/WX    TMP DP  RH WIND       PRES   REMARKS
MOLINE         CLOUDY    27  17  66 N6        30.26R WCI  20
STERLING*      MOCLDY    25  16  68 N5        30.27R WCI  19
SAVANNA*       PTCLDY    24  17  73 CALM      30.27R
$$

ILZ003-004-008-010-011-017-018-190000-
NORTH CENTRAL ILLINOIS

CITY           SKY/WX    TMP DP  RH WIND       PRES   REMARKS
ROCKFORD       CLOUDY    26  16  65 N5        30.27R WCI  20
FREEPORT*      CLOUDY    25  17  72 N3        30.27R
ROCHELLE*      CLOUDY    25  19  77 CALM      30.26R
DE KALB*       CLOUDY    24  17  77 NW5       30.24S WCI  18
PERU*          CLOUDY    26  20  76 NW3       30.27R
$$

ILZ005-006-012>014-019>023-190000-
NORTHEAST ILLINOIS

CITY           SKY/WX    TMP DP  RH WIND       PRES   REMARKS
CHICAGO-OHARE  CLOUDY    28  19  69 N6        30.23R WCI  22
CHICAGO-MIDWAY CLOUDY    29  19  66 SW6       30.24R WCI  23
AURORA         CLOUDY    27  18  69 NW8       30.25R WCI  19
LANSING*       CLOUDY    26  19  72 CALM      30.24S
JOLIET*        CLOUDY    25  18  73 CALM      30.25S
WAUKEGAN       CLOUDY    27  21  78 NW5       30.23R WCI  22
DUPAGE AIRPORT CLOUDY    27  18  69 W5        30.23R WCI  22
KANKAKEE*      CLOUDY    27  21  79 NW3       30.26R
WHEELING       CLOUDY    28  19  69 NW5       30.25S WCI  23
MORRIS*        CLOUDY    25  21  83 NW6       30.26R WCI  18
ROMEOVILLE*    CLOUDY    25  19  79 W3        30.24S
NORTHERLY ISL    N/A     28  20  71 NE3         N/A
$$

LMZ740>746-190000-
SOUTHERN LAKE MICHIGAN

STATION/POSITION SKY/WX   TEMP    WIND        PRES    VSBY  WAVE
                          AIR SEA DIR/SP/G                  HT/PER
                          (F)     (DEG/KT/KT) (MB)    (MI)  (FT/S)
WAUKEGAN HARBOR            28     300/  2/  4   N/A
HARRISON CRIB              28     340/  3/  5   N/A
BURNHAM HARBOR             28      30/  3/  5   N/A
CALUMET HARBOR             27     200/  3/  4 1022.7R
$$

ILZ025>027-034>036-040-047-049-050-058-095>099-190000-
WEST-CENTRAL ILLINOIS

CITY           SKY/WX    TMP DP  RH WIND       PRES   REMARKS
QUINCY         CLOUDY    29  24  82 N5        30.25R WCI  24
GALESBURG*     CLOUDY    27  21  78 W3        30.25S
MACOMB*        CLOUDY    29  23  76 N5        30.28R WCI  24
JACKSONVILLE*  CLOUDY    31  27  83 CALM      30.26R
PITTSFIELD*    CLOUDY    30  26  86 CALM      30.26R
$$

ILZ028>032-037-038-041>044-048-051>054-059>061-190000-
CENTRAL ILLINOIS

CITY           SKY/WX    TMP DP  RH WIND       PRES   REMARKS
PONTIAC        CLOUDY    28  23  81 N5        30.26R WCI  23
BLOOMINGTON    MOCLDY    27  21  77 CALM      30.25R
DECATUR        CLOUDY    29  23  78 CALM      30.25S
PEORIA         MOCLDY    29  18  63 N3        30.26R
LACON*         PTCLDY    26  19  73 CALM      30.26S
LINCOLN*       CLOUDY    30  24  78 CALM      30.27S
SPRINGFIELD    CLOUDY    30  25  81 N5        30.26S WCI  25
TAYLORVILLE    CLOUDY    28  25  86 N5        30.26R WCI  23
$$

ILZ033-039-045-046-055>057-062-063-190000-
EAST-CENTRAL ILLINOIS

CITY           SKY/WX    TMP DP  RH WIND       PRES   REMARKS
CHAMPAIGN      CLOUDY    28  22  78 W5        30.25R WCI  23
DANVILLE*      CLOUDY    28  22  81 CALM      30.22S
RANTOUL*       CLOUDY    30  24  79 CALM      30.25R
MATTOON        CLOUDY    29  22  75 N5        30.24R WCI  24
PARIS*         CLOUDY    29  25  82 CALM      30.26R
$$

ILZ079-100>102-190000-
SOUTHWEST ILLINOIS

CITY           SKY/WX    TMP DP  RH WIND       PRES   REMARKS
ALTON          CLOUDY    34  25  69 NE6       30.25R WCI  29
BELLEVILLE     CLOUDY    34  28  80 NE5       30.24S WCI  30
CAHOKIA*       CLOUDY    35  30  82 CALM      30.25R
SPARTA*        LGT RAIN  33  30  90 CALM      30.24S
$$

ILZ064>066-069>071-074>076-080>082-084>086-088>090-092>094-190000-
SOUTH-CENTRAL ILLINOIS

CITY           SKY/WX    TMP DP  RH WIND       PRES   REMARKS
CARBONDALE     CLOUDY    34  29  82 CALM      30.24S
CAIRO*         CLOUDY    38  34  85 E5        30.23S WCI  34
EFFINGHAM*     CLOUDY    32  22  66 N5        30.26S WCI  27
MARION         CLOUDY    36  32  87 NE6       30.24F WCI  31
MT. VERNON     CLOUDY    34  25  69 E3        30.23F
CENTRALIA*     CLOUDY    33  24  72 CALM      30.24R
SALEM*         CLOUDY    33  25  71 CALM      30.24S
METROPOLIS*    CLOUDY    36  35  96 CALM      30.22S
$$

ILZ067-068-072-073-078-083-087-091-190000-
SOUTHEAST ILLINOIS

CITY           SKY/WX    TMP DP  RH WIND       PRES   REMARKS
LAWRENCEVILLE  CLOUDY    31  24  75 CALM      30.25S
FLORA*         MOCLDY    31  25  77 CALM      30.25S
FAIRFIELD*     CLOUDY    32  26  77 NE3       30.23F
HARRISBURG*    CLOUDY    33  28  82 NE3       30.25F
ROBINSON*      CLOUDY    30  24  76 N3        30.26S
CARMI*         CLOUDY    35  28  77 CALM      30.24S
$$

ABBREVIATIONS USED IN REMARKS
   TC - TEMPERATURE IN CELSIUS
  WCI - WIND CHILL INDEX
   HX - HEAT INDEX
  VSB - VISIBILITY
$$




USA.gov is the U.S. government's official web portal to all federal, state and local government web resources and services.